www.pogodaiklimat.ru

Погода и климат >> Архив погоды >> Сингапур >> Singapore


АРХИВ ПОГОДЫ в Singapore

Время (UTC), дата Ветер
(напр.,м/с)
 
Видим.   Явления Облачность Т
(С)
Тd
(С)
f
(%)
Тe
(С)
Тes
(С)
Комфортность P
(гПа)
Po
(гПа)
Тmin
(С)
Tmax
(С)
R
(мм)
R24
(мм)
S
(см)
09 18.02 СВ 6 13 км мгла 9/3 660 м
[Cu hum Ci sp]
+31.1 +23.3 63 +42 +43 опасность
перегрева
1007.5 1005.7
12 18.02 СВ 4 12 км мгла 8/1 540 м
[Cu hum Ci fib]
+26.8 +22.4 77 +35 +35 очень
душно
1009.0 1007.2 +32.1
15 18.02 СВ 2 12 км мгла 9/1 540 м
[Cu hum Ac trans Ci sp]
+25.9 +22.8 83 +34 +34 очень
душно
1012.0 1010.1
18 18.02 СВ 2 12 км мгла 9/1 540 м
[Cu Sc Ac lent Ci sp]
+25.6 +23.0 86 +34 +34 очень
душно
1011.5 1009.7
21 18.02 СВ 2 12 км мгла 6/1 540 м
[Cu hum Ac trans Ci fib]
+25.0 +23.2 90 +33 +33 очень
душно
1010.3 1008.4
00 19.02 СВ 3 9000 м мгла 8/1 540 м
[Cu hum Ci fib]
+25.5 +23.7 90 +35 +36 очень
душно
1010.7 1008.9 +24.7
03 19.02 СВ 5 14 км мгла 9/4 600 м
[Cu hum Ci fib]
+28.6 +23.5 74 +39 +43 очень
душно
1011.0 1009.2
06 19.02 СВ 5 16 км мгла 9/4 600 м
[Cu hum Ac trans Ci sp]
+31.5 +23.0 61 +42 +46 опасность
перегрева
1009.4 1007.6
09 19.02 СВ 7 18 км мгла 9/1 600 м
[Cu hum Ac trans Ci fib]
+30.4 +22.5 63 +40 +41 очень
душно
1007.6 1005.8
12 19.02 СВ 5 16 км мгла 9/3 540 м
[Cu med, cong Ac trans Ci sp]
+26.8 +22.7 78 +35 +35 очень
душно
1008.6 1006.8 +32.2
15 19.02 СВ 3 13 км мгла 9/1 540 м
[Cu hum Ci sp]
+26.1 +23.2 84 +35 +35 очень
душно
1011.0 1009.2
18 19.02 СВ 3 12 км мгла 9/1 500 м
[Cu hum Ci sp]
+25.7 +23.3 87 +35 +35 очень
душно
1010.8 1009.0
21 19.02 СВ 3 12 км мгла 9/1 540 м
[Cu hum Ac trans Ci sp]
+25.5 +23.2 87 +34 +34 очень
душно
1010.0 1008.1
00 20.02 С 2 12 км мгла 9/1 540 м
[Cu hum Ac trans Ci sp]
+25.9 +23.3 86 +35 +36 очень
душно
1011.2 1009.3 +25.1
03 20.02 СВ 3 16 км мгла 9/3 600 м
[Cu hum Ac trans Ci fib]
+29.7 +23.1 68 +40 +46 очень
душно
1011.8 1009.9
06 20.02 СВ 4 18 км мгла 9/5 660 м
[Cu Sc Ac trans Ci sp]
+31.4 +20.7 53 +38 +42 очень
душно
1009.3 1007.5
09 20.02 СВ 5 20 км мгла 9/1 700 м
[Cu hum Ac trans Ci sp]
+31.3 +21.5 56 +39 +41 очень
душно
1007.3 1005.5
12 20.02 СВ 5 12 км мгла 9/1 600 м
[Cu hum Ac trans Ci sp]
+27.2 +23.5 80 +37 +37 очень
душно
1008.7 1006.8 +32.8
15 20.02 СВ 3 16 км мгла 8/1 660 м
[Cu hum Ci sp]
+26.3 +24.0 87 +36 +36 очень
душно
1010.0 1008.1
18 20.02 СВ 3 14 км мгла 8/1 660 м
[Cu hum Ci sp]
+26.2 +23.9 87 +36 +36 очень
душно
1009.2 1007.4
21 20.02 СВ 3 12 км мгла 9/1 600 м
[Cu hum Ac trans Ci sp]
+25.7 +23.7 89 +35 +35 очень
душно
1008.2 1006.4
00 21.02 СВ 2 10 км мгла 9/1 600 м
[Cu hum Ac trans Ci sp]
+26.0 +23.9 88 +36 +36 очень
душно
1009.4 1007.5 +25.3
03 21.02 СВ 3 12 км мгла 9/3 540 м
[Cu hum Ac trans Ci sp]
+29.8 +22.9 67 +40 +45 очень
душно
1010.4 1008.5
06 21.02 СВ 5 14 км мгла 9/3 600 м
[Cu hum Ac trans Ci sp]
+32.0 +22.3 57 +41 +46 опасность
перегрева
1008.3 1006.5
09 21.02 СВ 6 16 км мгла 9/1 660 м
[Cu hum Ac trans Ci sp]
+30.8 +22.2 60 +40 +41 очень
душно
1006.6 1004.8
12 21.02 СВ 5 16 км мгла 9/1 540 м
[Cu hum Ac trans Ci sp]
+27.4 +23.6 80 +37 +37 очень
душно
1007.6 1005.8 +33.1
15 21.02 СВ 3 14 км мгла 8/1 540 м
[Cu hum Ci sp]
+26.7 +24.1 86 +37 +37 очень
душно
1009.3 1007.5
18 21.02 СВ 4 14 км мгла 6/1 480 м
[Cu hum Ci sp]
+26.2 +24.1 88 +36 +36 очень
душно
1008.9 1007.1
21 21.02 СВ 3 12 км мгла 9/3 450 м
[Cu hum Ci sp]
+25.6 +24.0 91 +35 +35 очень
душно
1008.3 1006.5
00 22.02 СЗ 1 10 км мгла 9/1 450 м
[Cu hum Ac trans Ci sp]
+25.9 +24.1 90 +36 +37 очень
душно
1009.6 1007.7 +25.4
03 22.02 СВ 4 14 км мгла 9/4 500 м
[Cu hum Ac trans Ci sp]
+29.6 +23.4 69 +40 +44 очень
душно
1010.8 1009.0
06 22.02 СВ 4 16 км мгла 9/4 660 м
[Cu hum Ci fib]
+32.2 +21.5 53 +40 +47 очень
душно
1008.0 1006.2
09 22.02 СВ 8 16 км мгла 8/1 600 м
[Cu med, cong Ac trans Ci fib]
+31.5 +22.5 59 +41 +42 опасность
перегрева
1005.9 1004.1
12 22.02 СВ 6 15 км мгла 9/1 540 м
[Cu hum Ac trans Ci sp]
+27.5 +23.7 80 +38 +38 очень
душно
1008.0 1006.2 +33.3
15 22.02 СВ 4 14 км мгла 8/1 480 м
[Cu hum Ci sp]
+27.0 +24.0 84 +37 +37 очень
душно
1010.3 1008.5
18 22.02 С 2 12 км мгла 8/1 480 м
[Cu hum Ci sp]
+26.1 +24.3 90 +36 +36 очень
душно
1009.5 1007.7
21 22.02 С 2 12 км мгла 9/1 450 м
[Cu hum Ac trans Ci sp]
+25.9 +24.3 91 +36 +36 очень
душно
1008.6 1006.7
00 23.02 СВ 2 12 км мгла 9/1 450 м
[Cu hum Ac trans Ci sp]
+26.2 +24.4 90 +37 +37 очень
душно
1010.6 1008.8 +25.8
03 23.02 СВ 3 18 км мгла 9/1 540 м
[Cu hum Ac trans Ci sp]
+30.1 +24.5 72 +42 +50 опасность
перегрева
1011.8 1010.0
06 23.02 СВ 6 18 км мгла 9/3 540 м
[Cu med, cong Ac trans Ci sp]
+32.3 +23.1 58 +42 +46 опасность
перегрева
1009.2 1007.4
09 23.02 СВ 5 18 км мгла 9/5 540 м
[Cu med, cong Ac trans Cs]
+31.0 +23.4 64 +42 +43 опасность
перегрева
1007.9 1006.0
12 23.02 С 2 10 км в посл. час ливневой дождь 9/6 400 м
[Cu Sc Ac As Cs]
+26.9 +24.3 86 +38 +38 очень
душно
1010.3 1008.5 +33.1 0.8
15 23.02 С 2 12 км мгла 9/1 450 м
[Cu hum Ac trans Ci sp]
+26.6 +24.4 88 +37 +37 очень
душно
1012.0 1010.2
18 23.02 С 1 12 км мгла 9/1 450 м
[Cu Sc Ac trans Ci sp]
+26.3 +24.4 89 +37 +37 очень
душно
1011.0 1009.2
21 23.02 С 2 8000 м мгла 9/4 360 м
[Cu Sc Ac trans Ci sp]
+26.0 +24.4 91 +36 +36 очень
душно
1010.2 1008.4
00 24.02 С 2 14 км мгла 9/3 360 м
[Cu Sc Ac trans Cs]
+24.8 +22.8 89 +33 +33 очень
душно
1012.1 1010.3 +24.7
03 24.02 С 2 14 км в посл. час дождь {ливн. осадки} 9/4 360 м
[Cu Sc Ac As Cs]
+26.6 +23.6 84 +36 +42 очень
душно
1014.3 1012.5 0.2
06 24.02 СВ 5 18 км мгла {ливн. осадки, дождь} 9/3 400 м
[Cu Sc Ac As Cs]
+27.6 +23.4 78 +37 +42 очень
душно
1012.1 1010.3
09 24.02 СВ 4 18 км мгла 9/3 420 м
[Cu hum Ac As Cs]
+26.7 +23.4 82 +36 +38 очень
душно
1009.9 1008.0
12 24.02 С 2 14 км мгла 9/5 400 м
[Cu Sc Ac trans Cs]
+25.7 +22.8 84 +34 +34 очень
душно
1010.5 1008.6 +28.8
15 24.02 СЗ 2 12 км мгла 9/4 540 м
[Cu Sc Ac trans Cs]
+25.6 +22.6 84 +34 +34 очень
душно
1012.6 1010.8
18 24.02 СВ 2 12 км мгла 9/4 540 м
[Cu Sc Ac trans Cs]
+25.6 +23.5 88 +35 +35 очень
душно
1011.3 1009.4
21 24.02 С 1 14 км мгла 9/5 400 м
[Cu Sc Ac trans Cs]
+25.3 +23.8 91 +34 +34 очень
душно
1010.2 1008.3
00 25.02 СЗ 2 8000 м мгла 9/4 480 м
[Cu Sc Ac trans Cs]
+25.7 +24.0 90 +35 +36 очень
душно
1011.4 1009.5 +24.6
03 25.02 СВ 4 10 км мгла 9/3 540 м
[Cu Sc Ac lent Cs]
+28.7 +24.2 77 +40 +45 очень
душно
1012.8 1011.0
06 25.02 СВ 5 12 км мгла 9/3 540 м
[Cu med, cong Ac trans Cs]
+31.5 +23.3 62 +42 +47 опасность
перегрева
1010.6 1008.8

 

Местоположение метеостанции Singapore (Сингапур): широта 1.37 долгота 103.98 высота над уровнем моря 16 м.

В архиве по умолчанию представлена погода в Singapore за последнюю неделю. Архивные данные за месяц целиком и за предыдущие месяцы, начиная с января 2011 года, Вы можете получить, выбрав интересующий диапазон дат из раскрывающегося списка и нажав кнопку "Ввод!".

Внимание! Время в таблицах - всемирное. Для получения местного времени необходимо прибавить поправку, которая в Singapore равна 7 ч.

Смотрите также архив погоды в соседних городах и на ближайших метеорологических станциях:

Погода в Batam Hang Nadim Airport (Индонезия) (31 км)
Погода в Johore Bharu / Senai (Малайзия) (45 км)
Погода в Tanjung Pinang (Индонезия) (79 км)
Погода в Singkep Dabo Airport (Индонезия) (216 км)
Погода в Malacca (Малайзия) (217 км)
Погода в Rengat Japura Airport (Индонезия) (265 км)
Погода в Kuantan (Малайзия) (281 км)
Погода в Kuala Lumpur Int Airport (Малайзия) (295 км)
Погода в Pekanbaru (Индонезия) (299 км)
Погода в Tarempa (Индонезия) (324 км)

Пояснения к столбцам:

Ветер - указаны скорость ветра в м/с - средняя за 10 мин, порывы в срок и между сроками (в фигурных скобках) и направление, откуда дует ветер: С - северный, СВ - северо-восточный, В - восточный, ЮВ - юго-восточный, Ю - южный, ЮЗ - юго-западный, З - западный, СЗ - северо-западный.
Видимость - горизонтальная дальность видимости в метрах или километрах. При видимости от 1 до 10 км при отсутствии осадков обычно наблюдается дымка, при ухудшении видимости до 1 км и менее - туман. В сухую погоду видимость может ухудшаться дымом, пылью или мглою.
Явления - указаны атмосферные явления, наблюдавшиеся в срок или в последний час перед сроком; фигурными скобками обозначены явления, наблюдавшиеся между сроками (за 1-3 часа до срока); квадратными скобками обозначены град или гололедные отложения с указанием их диаметра в мм.
Облачность - указаны через наклонную черту общая и нижняя облачность в баллах и высота нижней границы облаков в метрах; квадратными скобками обозначены формы облаков: Ci - перистые, Cs - перисто-слоистые, Cc - перисто-кучевые, Ac - высококучевые, As - высокослоистые, Sc - слоисто-кучевые, Ns - слоисто-дождевые, Cu - кучевые, Cb - кучево-дождевые. Подробнее классификацию облаков см. в Атласе облаков (PDF).
T - Температура воздуха - температура, измеренная на высоте 2 м над землей.
Td - Температура точки росы - температура, при понижении до которой содержащийся в воздухе водяной пар достигнет насыщения.
f - Относительная влажность воздуха - влажноcть воздуха, измеренная на высоте 2 м над землей.
Te - Эффективная температура - температура, которую ощущает одетый по сезону человек в тени. Характеристика душности погоды. При расчете учитывается влияние влажности воздуха и скорости ветра на теплоощущения человека.
Tes - Эффективная температура на солнце - температура, которую ощущает человек, с поправкой на солнечный нагрев. Характеристика знойности погоды. Зависит от высоты солнца над горизонтом, облачности и скорости ветра. Ночью, в пасмурную погоду, а также при ветре 12 м/с и более поправка равна нулю.
P - Атмосферное давление - приведенное к уровню моря атмосферное давление.
Po - Атмосферное давление - измеренное на уровне метеостанции атмосферное давление.
Tmin - Минимальная температура - минимум температуры воздуха на высоте 2 м над землей.
Tmax - Максимальная температура - максимум температуры воздуха на высоте 2 м над землей.
R - Количество осадков - Количество выпавших осадков за период времени, мм. При наведении курсора мыши на число - период времени, за который выпало указанное количество осадков.
R24 - Количество осадков - Количество выпавших осадков за 24 часа, мм.
S - Снежный покров - Высота снежного покрова, см. При наведении курсора мыши на число - состояние снежного покрова и степень покрытия местности в баллах.